Marrakech, Morocco

1:51 AM WET on May 28, 2017 (GMT +0000)
Marrakech

Weather History for GMMX - December, 2013

Change the Weather History Date:

Wednesday, December 25, 2013

  Actual Average Record
Temperature  
Mean Temperature 54 °F -  
Max Temperature 69 °F 63 °F 73 °F (1997)
Min Temperature 39 °F 42 °F 33 °F (2006)
Degree Days  
Heating Degree Days 11    
Growing Degree Days 4 (Base 50)    
Moisture  
Dew Point 42 °F    
Average Humidity 62    
Maximum Humidity 100    
Minimum Humidity 22    
Precipitation  
Precipitation 0.03 in 0.04 in - ()
Sea Level Pressure  
Sea Level Pressure 30.22 in    
Wind  
Wind Speed 5 mph ()    
Max Wind Speed 16 mph    
Max Gust Speed -    
Visibility 5.8 miles    
Events Rain    
Averages and records for this station are not official NWS values.
T = Trace of Precipitation, MM = Missing Value Source: Averaged Metar Reports

Daily Weather History Graph

Daily Weather History Graph

Search for Another Location

Airport or City:

Trip Planner

Search our weather history database for the weather conditions in past years. The results will help you decide how hot, cold, wet, or windy it might be!

Date:

Astronomy

Dec. 25, 2013 Rise Set
Actual Time 7:29 AM WET 5:35 PM WET
Civil Twilight 7:02 AM WET 6:01 PM WET
Nautical Twilight 6:32 AM WET 6:32 PM WET
Astronomical Twilight 6:02 AM WET 7:02 PM WET
Moon 12:05 AM WET (12/25) 12:12 PM WET (12/25)
Length of Visible Light 10h 59m
Length of Day
10h 05m
Waning Gibbous, 51% of the Moon is Illuminated
Dec 25
Waning Gibbous
Dec 25
Last Quarter
Jan 1
New
Jan 8
First Quarter
Jan 16
Full

Hourly Weather History & Observations

Time (WET) Temp. Windchill Dew Point Humidity Pressure Visibility Wind Dir Wind Speed Gust Speed Precip Events Conditions
12:00 AM 47 °F - 36 °F 55% 30.26 in 6 mi ESE 2.3 mph - -   Clear
12:00 AM 48.2 °F - 35.6 °F 62% 30.21 in - ESE 1.2 mph - N/A   Clear
12:30 AM 46.4 °F - 35.6 °F 66% 30.21 in - Variable 2.3 mph - N/A   Clear
1:00 AM 44.6 °F 43.1 °F 35.6 °F 71% 30.21 in - East 3.5 mph - N/A   Clear
1:30 AM 46.4 °F 44.3 °F 35.6 °F 66% 30.18 in - SSE 4.6 mph - N/A   Clear
2:00 AM 46.4 °F - 35.6 °F 66% 30.18 in - Variable 2.3 mph - N/A   Clear
2:30 AM 44.6 °F - 35.6 °F 71% 30.21 in - Variable 2.3 mph - N/A   Clear
3:00 AM 44 °F - 36 °F 64% 30.24 in 6 mi ESE 2.3 mph - -   Clear
3:00 AM 44.6 °F 43.1 °F 35.6 °F 71% 30.21 in - ESE 3.5 mph - N/A   Clear
3:30 AM 42.8 °F - 35.6 °F 76% 30.21 in - ESE 1.2 mph - N/A   Clear
4:00 AM 44.6 °F 43.1 °F 35.6 °F 71% 30.21 in 6.2 mi SSE 3.5 mph - N/A   Unknown
4:30 AM 46.4 °F - 35.6 °F 66% 30.18 in 6.2 mi Variable 2.3 mph - N/A   Unknown
5:00 AM 48.2 °F - 35.6 °F 62% 30.18 in 6.2 mi SE 3.5 mph - N/A   Unknown
5:30 AM 46.4 °F - 35.6 °F 66% 30.18 in 6.2 mi Variable 2.3 mph - N/A   Unknown
6:00 AM 46 °F - 36 °F 58% 30.22 in 6 mi NE 3.5 mph - -   Partly Cloudy
6:00 AM 46.4 °F 45.2 °F 35.6 °F 66% 30.18 in 6.2 mi NNE 3.5 mph - N/A   Scattered Clouds
6:30 AM 44.6 °F 42.2 °F 35.6 °F 71% 30.18 in 6.2 mi ESE 4.6 mph - N/A   Scattered Clouds
7:00 AM 42.8 °F - 35.6 °F 76% 30.18 in 6.2 mi Variable 2.3 mph - N/A   Scattered Clouds
7:30 AM 42.8 °F 41.1 °F 35.6 °F 76% 30.18 in 6.2 mi East 3.5 mph - N/A   Scattered Clouds
8:00 AM 42.8 °F 41.1 °F 35.6 °F 76% 30.18 in 6.2 mi East 3.5 mph - N/A   Scattered Clouds
8:30 AM 44.6 °F 43.1 °F 37.4 °F 76% 30.18 in 6.2 mi East 3.5 mph - N/A   Scattered Clouds
9:00 AM 49 °F - 38 °F 55% 30.23 in 5 mi NNE 2.3 mph - -   Scattered Clouds
9:00 AM 48.2 °F - 37.4 °F 66% 30.21 in 5.0 mi NNE 2.3 mph - N/A   Scattered Clouds
9:30 AM 51.8 °F - 37.4 °F 58% 30.21 in 3.7 mi Variable 2.3 mph - N/A   Scattered Clouds
10:00 AM 53.6 °F - 37.4 °F 54% 30.24 in 3.7 mi NNE 4.6 mph - N/A   Scattered Clouds
10:30 AM 57.2 °F - 37.4 °F 48% 30.27 in 6.2 mi Variable 3.5 mph - N/A   Scattered Clouds
11:00 AM 59.0 °F - 41.0 °F 51% 30.30 in 6.2 mi West 10.4 mph - N/A   Scattered Clouds
11:30 AM 60.8 °F - 42.8 °F 52% 30.30 in 6.2 mi West 10.4 mph - N/A   Scattered Clouds
12:00 PM 61 °F - 43 °F 41% 30.27 in 6 mi WSW 11.5 mph - -   Partly Cloudy
12:00 PM 60.8 °F - 42.8 °F 52% 30.27 in 6.2 mi WSW 11.5 mph - N/A   Scattered Clouds
12:30 PM 62.6 °F - 44.6 °F 52% 30.27 in 6.2 mi WSW 11.5 mph - N/A   Scattered Clouds
1:00 PM 62.6 °F - 42.8 °F 48% 30.24 in 6.2 mi SSW 11.5 mph - N/A   Scattered Clouds
1:30 PM 64.4 °F - 41.0 °F 42% 30.21 in 6.2 mi SSW 11.5 mph - N/A   Scattered Clouds
2:00 PM 64.4 °F - 41.0 °F 42% 30.18 in 6.2 mi South 10.4 mph - N/A   Scattered Clouds
2:30 PM 66.2 °F - 39.2 °F 37% 30.18 in 6.2 mi SW 3.5 mph - N/A   Scattered Clouds
3:00 PM 68 °F - 38 °F 22% 30.14 in 6 mi West 5.8 mph - -   Scattered Clouds
3:00 PM 68.0 °F - 39.2 °F 35% 30.18 in 6.2 mi West 5.8 mph - N/A   Scattered Clouds
3:30 PM 68.0 °F - 37.4 °F 33% 30.18 in 6.2 mi West 9.2 mph - N/A   Scattered Clouds
4:00 PM 69.8 °F - 37.4 °F 31% 30.18 in 6.2 mi West 10.4 mph - N/A   Scattered Clouds
4:30 PM 68.0 °F - 37.4 °F 33% 30.18 in 6.2 mi West 15.0 mph - N/A   Scattered Clouds
5:00 PM 66.2 °F - 46.4 °F 49% 30.18 in 6.2 mi West 16.1 mph - N/A   Scattered Clouds
5:30 PM 64.4 °F - 48.2 °F 56% 30.18 in 6.2 mi West 9.2 mph - N/A   Scattered Clouds
6:00 PM 63 °F - 48 °F 48% 30.17 in 6 mi West 9.2 mph - -   Scattered Clouds
6:00 PM 62.6 °F - 48.2 °F 59% 30.18 in 6.2 mi West 9.2 mph - N/A   Mostly Cloudy
6:30 PM 62.6 °F - 50.0 °F 63% 30.21 in 6.2 mi West 9.2 mph - N/A   Mostly Cloudy
7:00 PM 62.6 °F - 50.0 °F 63% 30.21 in 6.2 mi West 9.2 mph - N/A   Mostly Cloudy
7:30 PM 62.6 °F - 50.0 °F 63% 30.21 in 6.2 mi WSW 10.4 mph - N/A   Mostly Cloudy
8:00 PM 62.6 °F - 50.0 °F 63% 30.24 in 6.2 mi West 9.2 mph - N/A   Mostly Cloudy
8:30 PM 62.6 °F - 50.0 °F 63% 30.24 in 6.2 mi West 8.1 mph - N/A   Mostly Cloudy
9:00 PM 60 °F - 54 °F 73% 30.24 in 4 mi West 11.5 mph - - Rain Light Rain
9:00 PM 60.8 °F - 53.6 °F 77% 30.24 in 4.3 mi West 11.5 mph - N/A Rain Heavy Rain
9:30 PM 57.2 °F - 55.4 °F 94% 30.27 in 4.3 mi SW 6.9 mph - N/A Rain Light Rain
10:00 PM 57.2 °F - 57.2 °F 100% 30.27 in 3.7 mi SW 6.9 mph - N/A   Mostly Cloudy
10:30 PM 57.2 °F - 57.2 °F 100% 30.27 in 6.2 mi SSW 5.8 mph - N/A   Mostly Cloudy
11:00 PM 57.2 °F - 57.2 °F 100% 30.27 in 5.0 mi SSW 9.2 mph - N/A   Mostly Cloudy
11:30 PM 57.2 °F - 57.2 °F 100% 30.27 in 5.0 mi SSW 8.1 mph - N/A   Mostly Cloudy